EXS4BX EGNM-LSGG

Flight info

Callsign EXS4BX
Flight time N/A
Altitude 35000
Route POL DCT MCT DCT LISTO P18 STAFA L8 HON UL612 VEULE DCT PEKIM DCT PILUL DCT PIMUP DCT PIXIS DCT PIBAT DCT LUSAR
Aircraft B738/M-SDE2E3FGHIRWXY/LB1

Departure

Time 2026-05-06 21:55
Airport Leeds Bradford Airport (EGNM)

Arrival

Time N/A
Airport Geneva International Airport (LSGG)
Time Latitude Longitude Altitude Speed Heading
2026-05-06 21:31 53.86879 -1.65760 664 ft 0 kts
2026-05-06 21:46 53.86859 -1.65761 664 ft 4 kts 358°
2026-05-06 21:47 53.86833 -1.65755 664 ft 4 kts 338°
2026-05-06 21:47 53.86817 -1.65732 661 ft 3 kts 276°
2026-05-06 21:47 53.86815 -1.65691 662 ft 4 kts 272°
2026-05-06 21:47 53.86815 -1.65646 663 ft 4 kts 270°
2026-05-06 21:48 53.86815 -1.65615 663 ft 0 kts 271°
2026-05-06 21:50 53.86815 -1.65616 663 ft 0 kts 272°
2026-05-06 21:50 53.86816 -1.65643 663 ft 5 kts 273°
2026-05-06 21:51 53.86816 -1.65731 661 ft 10 kts 264°
2026-05-06 21:51 53.86813 -1.65881 664 ft 15 kts 271°
2026-05-06 21:51 53.86823 -1.66087 665 ft 19 kts 296°
2026-05-06 21:51 53.86925 -1.66256 665 ft 22 kts 317°
2026-05-06 21:52 53.86968 -1.66354 670 ft 5 kts 299°
2026-05-06 21:52 53.86985 -1.66409 671 ft 5 kts 297°
2026-05-06 21:52 53.86997 -1.66475 672 ft 7 kts 270°
2026-05-06 21:52 53.86968 -1.66569 671 ft 12 kts 249°
2026-05-06 21:53 53.87007 -1.66696 675 ft 13 kts 317°
2026-05-06 21:53 53.87074 -1.66800 679 ft 14 kts 318°
2026-05-06 21:53 53.87152 -1.66920 683 ft 16 kts 317°
2026-05-06 21:53 53.87247 -1.66997 687 ft 17 kts
2026-05-06 21:54 53.87376 -1.67003 688 ft 20 kts 334°
2026-05-06 21:54 53.87350 -1.67180 688 ft 15 kts 198°
2026-05-06 21:54 53.87278 -1.67112 685 ft 13 kts 137°
2026-05-06 21:54 53.87180 -1.66961 685 ft 41 kts 137°
2026-05-06 21:55 53.86747 -1.66298 667 ft 123 kts 137°
2026-05-06 21:55 53.85970 -1.65116 933 ft 164 kts 136°
2026-05-06 21:55 53.85111 -1.63810 1983 ft 165 kts 137°
2026-05-06 21:55 53.84261 -1.62529 3032 ft 166 kts 137°
2026-05-06 21:56 53.83356 -1.61174 3620 ft 186 kts 139°
2026-05-06 21:56 53.82130 -1.60090 3874 ft 213 kts 169°
2026-05-06 21:56 53.80630 -1.60296 4399 ft 224 kts 202°
2026-05-06 21:56 53.79340 -1.61951 4724 ft 249 kts 237°
2026-05-06 21:57 53.78806 -1.64783 5355 ft 257 kts 265°
2026-05-06 21:57 53.78625 -1.67772 6259 ft 259 kts 264°
2026-05-06 21:57 53.78369 -1.70819 6756 ft 262 kts 263°
2026-05-06 21:57 53.78095 -1.73862 7047 ft 266 kts 263°
2026-05-06 21:58 53.77798 -1.76988 7656 ft 271 kts 262°
2026-05-06 21:58 53.77485 -1.80148 8592 ft 271 kts 261°
2026-05-06 21:58 53.77170 -1.83274 9409 ft 275 kts 261°
2026-05-06 21:58 53.76843 -1.86502 10188 ft 279 kts 261°
2026-05-06 21:59 53.76507 -1.89807 10692 ft 295 kts 261°
2026-05-06 21:59 53.76145 -1.93367 10902 ft 318 kts 261°
2026-05-06 21:59 53.75760 -1.97132 11437 ft 328 kts 261°
2026-05-06 21:59 53.75368 -2.00934 12135 ft 333 kts 260°
2026-05-06 22:00 53.74931 -2.04753 12923 ft 336 kts 254°
2026-05-06 22:00 53.73845 -2.08269 13658 ft 341 kts 231°
2026-05-06 22:00 53.72026 -2.10896 14365 ft 347 kts 212°
2026-05-06 22:00 53.69778 -2.12362 15023 ft 354 kts 197°
2026-05-06 22:01 53.67370 -2.13363 15694 ft 357 kts 195°
2026-05-06 22:01 53.64926 -2.14327 16349 ft 361 kts 195°
2026-05-06 22:01 53.62499 -2.15281 17005 ft 364 kts 195°
2026-05-06 22:01 53.59996 -2.16278 17670 ft 368 kts 196°
2026-05-06 22:02 53.57512 -2.17281 18318 ft 371 kts 196°
2026-05-06 22:02 53.54979 -2.18314 18881 ft 375 kts 196°
2026-05-06 22:02 53.52447 -2.19351 19422 ft 379 kts 196°
2026-05-06 22:02 53.49870 -2.20407 19944 ft 383 kts 196°
2026-05-06 22:03 53.47253 -2.21481 20491 ft 386 kts 196°
2026-05-06 22:03 53.44655 -2.22545 21005 ft 390 kts 195°
2026-05-06 22:03 53.41998 -2.23632 21525 ft 394 kts 195°
2026-05-06 22:03 53.39305 -2.24731 22038 ft 398 kts 195°
2026-05-06 22:04 53.36567 -2.25600 22525 ft 403 kts 187°
2026-05-06 22:04 53.33778 -2.25682 23025 ft 409 kts 177°
2026-05-06 22:04 53.30935 -2.24974 23529 ft 413 kts 171°
2026-05-06 22:04 53.28094 -2.24066 23953 ft 416 kts 170°
2026-05-06 22:05 53.25233 -2.23152 24345 ft 419 kts 171°
2026-05-06 22:05 53.22373 -2.22271 24741 ft 422 kts 171°
2026-05-06 22:05 53.19467 -2.21408 25152 ft 425 kts 171°
2026-05-06 22:05 53.16537 -2.20552 25533 ft 428 kts 171°
2026-05-06 22:06 53.13602 -2.20022 25900 ft 430 kts 180°
2026-05-06 22:06 53.10597 -2.20301 26283 ft 431 kts 187°
2026-05-06 22:06 53.07602 -2.20868 26656 ft 434 kts 187°
2026-05-06 22:06 53.04627 -2.21400 27001 ft 437 kts 187°
2026-05-06 22:07 53.01583 -2.21893 27354 ft 440 kts 186°
2026-05-06 22:07 52.98510 -2.22365 27699 ft 442 kts 186°
2026-05-06 22:07 52.95469 -2.22835 28045 ft 445 kts 186°
2026-05-06 22:07 52.92376 -2.23318 28383 ft 447 kts 186°
2026-05-06 22:08 52.89241 -2.23659 28699 ft 451 kts 179°
2026-05-06 22:08 52.86124 -2.22912 28993 ft 454 kts 164°
2026-05-06 22:08 52.83235 -2.21055 29332 ft 455 kts 151°
2026-05-06 22:08 52.80573 -2.18183 29675 ft 456 kts 143°
2026-05-06 22:09 52.77997 -2.15111 29996 ft 458 kts 143°
2026-05-06 22:09 52.75393 -2.11998 30343 ft 458 kts 143°
2026-05-06 22:09 52.72845 -2.08978 30735 ft 456 kts 143°
2026-05-06 22:09 52.70261 -2.05949 31140 ft 454 kts 144°
2026-05-06 22:10 52.68542 -2.03951 31376 ft 454 kts 144°
2026-05-06 22:10 52.65952 -2.00955 31704 ft 453 kts 144°
2026-05-06 22:10 52.62518 -1.97004 32155 ft 453 kts 144°
2026-05-06 22:10 52.60801 -1.95033 32417 ft 452 kts 144°
2026-05-06 22:11 52.58224 -1.92077 32772 ft 451 kts 144°
2026-05-06 22:11 52.55749 -1.89242 33071 ft 451 kts 144°
2026-05-06 22:11 52.50563 -1.83310 33081 ft 456 kts 144°
2026-05-06 22:12 52.45410 -1.77433 33071 ft 448 kts 144°
2026-05-06 22:12 52.40268 -1.71583 33050 ft 445 kts 145°
2026-05-06 22:13 52.37744 -1.68719 32724 ft 438 kts 145°
2026-05-06 22:13 52.35446 -1.65543 32120 ft 436 kts 128°
2026-05-06 22:13 52.33948 -1.61241 31463 ft 434 kts 106°
2026-05-06 22:13 52.33431 -1.56415 30998 ft 429 kts 91°
2026-05-06 22:14 52.33600 -1.51627 30545 ft 424 kts 77°
2026-05-06 22:14 52.34593 -1.47111 30057 ft 419 kts 58°
2026-05-06 22:14 52.36372 -1.43385 29491 ft 414 kts 40°
2026-05-06 22:14 52.38709 -1.40759 28961 ft 408 kts 24°
2026-05-06 22:15 52.41333 -1.39244 28458 ft 403 kts 11°
2026-05-06 22:15 52.44141 -1.38711 27908 ft 399 kts 359°
2026-05-06 22:15 52.46879 -1.38935 27418 ft 396 kts 351°
2026-05-06 22:15 52.49555 -1.39863 26925 ft 392 kts 342°
2026-05-06 22:16 52.52148 -1.41226 26480 ft 389 kts 340°
2026-05-06 22:16 52.54711 -1.42665 26019 ft 386 kts 340°
2026-05-06 22:16 52.57218 -1.44095 25575 ft 384 kts 340°
2026-05-06 22:16 52.59755 -1.45536 25145 ft 382 kts 340°
2026-05-06 22:17 52.62236 -1.46933 24727 ft 380 kts 340°
2026-05-06 22:17 52.64739 -1.48331 24306 ft 378 kts 340°
2026-05-06 22:17 52.67203 -1.49699 24179 ft 367 kts 340°
2026-05-06 22:17 52.69586 -1.51016 24095 ft 353 kts 340°
2026-05-06 22:18 52.71877 -1.52280 23892 ft 340 kts 340°
2026-05-06 22:18 52.74091 -1.53504 23391 ft 337 kts 339°
2026-05-06 22:18 52.76319 -1.54738 22789 ft 336 kts 339°
2026-05-06 22:18 52.78505 -1.55950 22224 ft 334 kts 339°
2026-05-06 22:19 52.80695 -1.57164 21683 ft 330 kts 339°
2026-05-06 22:19 52.82877 -1.58375 21157 ft 328 kts 339°
2026-05-06 22:19 52.85028 -1.59570 20607 ft 325 kts 339°
2026-05-06 22:19 52.87178 -1.60765 20084 ft 323 kts 339°
2026-05-06 22:20 52.89273 -1.61932 19588 ft 322 kts 339°
2026-05-06 22:20 52.91407 -1.63121 19140 ft 324 kts 339°
2026-05-06 22:20 52.93552 -1.64319 18730 ft 325 kts 339°
2026-05-06 22:20 52.95706 -1.65521 18323 ft 326 kts 339°
2026-05-06 22:21 52.97870 -1.66731 17853 ft 327 kts 339°
2026-05-06 22:21 53.00034 -1.67941 17405 ft 328 kts 339°
2026-05-06 22:21 53.02168 -1.69137 16964 ft 328 kts 339°
2026-05-06 22:21 53.04339 -1.70354 16519 ft 328 kts 339°
2026-05-06 22:22 53.06511 -1.71572 16077 ft 327 kts 339°
2026-05-06 22:22 53.08631 -1.72762 15634 ft 320 kts 339°
2026-05-06 22:22 53.10724 -1.73938 15199 ft 314 kts 339°
2026-05-06 22:22 53.12771 -1.75089 14813 ft 306 kts 339°
2026-05-06 22:23 53.14770 -1.76214 14440 ft 300 kts 339°
2026-05-06 22:23 53.16723 -1.77315 14080 ft 293 kts 339°
2026-05-06 22:23 53.18638 -1.78396 13684 ft 288 kts 339°
2026-05-06 22:23 53.20524 -1.79463 13277 ft 285 kts 339°
2026-05-06 22:24 53.22394 -1.80521 12879 ft 283 kts 339°
2026-05-06 22:24 53.24252 -1.81574 12486 ft 280 kts 339°
2026-05-06 22:24 53.26094 -1.82618 12091 ft 279 kts 339°
2026-05-06 22:24 53.27917 -1.83652 11795 ft 275 kts 339°
2026-05-06 22:25 53.29718 -1.84674 11539 ft 272 kts 339°
2026-05-06 22:25 53.31502 -1.85689 11293 ft 276 kts 339°
2026-05-06 22:25 53.33364 -1.86749 11026 ft 281 kts 339°
2026-05-06 22:25 53.35192 -1.87790 10765 ft 281 kts 340°
2026-05-06 22:26 53.37037 -1.88842 10493 ft 279 kts 340°
2026-05-06 22:26 53.38868 -1.89885 10228 ft 277 kts 340°
2026-05-06 22:26 53.40696 -1.90928 9955 ft 276 kts 340°
2026-05-06 22:26 53.42503 -1.91961 9661 ft 274 kts 340°
2026-05-06 22:27 53.44304 -1.92991 9372 ft 272 kts 340°
2026-05-06 22:27 53.46093 -1.94015 9058 ft 270 kts 340°
2026-05-06 22:27 53.47862 -1.95028 8776 ft 268 kts 340°
2026-05-06 22:27 53.49619 -1.96035 8481 ft 266 kts 340°
2026-05-06 22:28 53.51359 -1.97033 8209 ft 264 kts 340°
2026-05-06 22:28 53.53092 -1.98029 7929 ft 262 kts 340°
2026-05-06 22:28 53.54813 -1.99018 7651 ft 261 kts 340°
2026-05-06 22:28 53.56534 -2.00009 7373 ft 260 kts 340°
2026-05-06 22:29 53.58244 -2.00993 7097 ft 259 kts 340°
2026-05-06 22:29 53.59949 -2.01976 6824 ft 258 kts 340°
2026-05-06 22:29 53.61619 -2.02939 6543 ft 255 kts 340°
2026-05-06 22:29 53.63263 -2.03888 6248 ft 248 kts 340°
2026-05-06 22:30 53.64870 -2.04817 5933 ft 241 kts 340°
2026-05-06 22:30 53.66450 -2.05732 5642 ft 238 kts 340°
2026-05-06 22:30 53.68003 -2.06630 5357 ft 235 kts 341°
2026-05-06 22:30 53.69545 -2.07523 5083 ft 232 kts 341°
2026-05-06 22:31 53.71054 -2.08398 5009 ft 227 kts 341°
2026-05-06 22:31 53.72554 -2.09268 4997 ft 230 kts 341°
2026-05-06 22:31 53.74081 -2.10155 4997 ft 233 kts 341°
2026-05-06 22:31 53.75506 -2.11450 4977 ft 236 kts 316°
2026-05-06 22:32 53.76349 -2.13816 4990 ft 239 kts 286°
2026-05-06 22:32 53.76398 -2.16546 4998 ft 243 kts 258°
2026-05-06 22:32 53.75619 -2.19078 4982 ft 248 kts 227°
2026-05-06 22:32 53.74156 -2.20596 4987 ft 251 kts 194°
2026-05-06 22:33 53.72424 -2.20567 4994 ft 252 kts 166°
2026-05-06 22:33 53.70751 -2.19685 4995 ft 253 kts 160°
2026-05-06 22:33 53.69090 -2.18677 4993 ft 254 kts 160°
2026-05-06 22:33 53.67421 -2.17670 4983 ft 254 kts 160°
2026-05-06 22:34 53.65781 -2.16638 4978 ft 249 kts 153°
2026-05-06 22:34 53.64530 -2.14723 4993 ft 243 kts 118°
2026-05-06 22:34 53.64080 -2.12038 5001 ft 245 kts 87°
2026-05-06 22:34 53.64491 -2.09279 4999 ft 244 kts 57°
2026-05-06 22:35 53.65642 -2.07289 4977 ft 236 kts 27°
2026-05-06 22:35 53.67191 -2.06567 4989 ft 231 kts
2026-05-06 22:35 53.68768 -2.06994 4995 ft 231 kts 343°
2026-05-06 22:35 53.70290 -2.07863 4991 ft 231 kts 340°
2026-05-06 22:36 53.71807 -2.08774 4985 ft 231 kts 340°
2026-05-06 22:36 53.73329 -2.09679 4976 ft 232 kts 341°
2026-05-06 22:36 53.74846 -2.10646 4985 ft 235 kts 332°
2026-05-06 22:36 53.76032 -2.12523 4992 ft 237 kts 302°
2026-05-06 22:37 53.76552 -2.15166 4981 ft 241 kts 275°
2026-05-06 22:37 53.76290 -2.17962 4993 ft 246 kts 248°
2026-05-06 22:37 53.75265 -2.20229 4980 ft 250 kts 218°
2026-05-06 22:37 53.73662 -2.21353 4976 ft 253 kts 186°
2026-05-06 22:38 53.71922 -2.21037 4995 ft 253 kts 164°
2026-05-06 22:38 53.70250 -2.20103 4992 ft 254 kts 160°
2026-05-06 22:38 53.68586 -2.19087 4989 ft 254 kts 160°
2026-05-06 22:38 53.66923 -2.18087 4971 ft 252 kts 160°
2026-05-06 22:39 53.65306 -2.16975 4974 ft 251 kts 146°
2026-05-06 22:39 53.64153 -2.14854 4993 ft 247 kts 114°
2026-05-06 22:39 53.63787 -2.12077 4998 ft 245 kts 84°
2026-05-06 22:39 53.64248 -2.09358 4993 ft 241 kts 56°
2026-05-06 22:40 53.65398 -2.07394 4989 ft 235 kts 28°
2026-05-06 22:40 53.66932 -2.06578 4984 ft 231 kts
2026-05-06 22:40 53.68519 -2.06881 4984 ft 231 kts 344°
2026-05-06 22:40 53.70057 -2.07731 4994 ft 233 kts 341°
2026-05-06 22:41 53.73088 -2.09540 4978 ft 232 kts 341°
2026-05-06 22:41 53.74608 -2.10459 4988 ft 233 kts 336°
2026-05-06 22:41 53.75882 -2.12148 4986 ft 237 kts 307°
2026-05-06 22:42 53.76540 -2.14708 4974 ft 242 kts 281°
2026-05-06 22:42 53.76442 -2.17540 4989 ft 246 kts 254°
2026-05-06 22:42 53.75553 -2.20013 4981 ft 251 kts 224°
2026-05-06 22:42 53.74030 -2.21441 4988 ft 255 kts 193°
2026-05-06 22:43 53.72272 -2.21407 4994 ft 254 kts 167°
2026-05-06 22:43 53.70577 -2.20529 4994 ft 256 kts 160°
2026-05-06 22:43 53.68901 -2.19509 4988 ft 256 kts 159°
2026-05-06 22:43 53.67245 -2.18507 4978 ft 255 kts 160°
2026-05-06 22:44 53.65592 -2.17463 4974 ft 251 kts 152°
2026-05-06 22:44 53.64316 -2.15552 4992 ft 247 kts 119°
2026-05-06 22:44 53.63783 -2.12853 4994 ft 242 kts 90°
2026-05-06 22:44 53.64060 -2.10086 4997 ft 242 kts 62°
2026-05-06 22:45 53.65057 -2.07870 4990 ft 237 kts 36°
2026-05-06 22:45 53.66527 -2.06727 4979 ft 231 kts
2026-05-06 22:45 53.68114 -2.06725 4985 ft 228 kts 348°
2026-05-06 22:45 53.69626 -2.07483 4992 ft 228 kts 342°
2026-05-06 22:46 53.71138 -2.08382 4997 ft 232 kts 341°
2026-05-06 22:46 53.72667 -2.09292 4979 ft 233 kts 341°
2026-05-06 22:46 53.74195 -2.10194 4986 ft 232 kts 341°
2026-05-06 22:46 53.75571 -2.11537 4981 ft 235 kts 315°
2026-05-06 22:47 53.76402 -2.13903 4990 ft 239 kts 288°
2026-05-06 22:47 53.76500 -2.16702 4989 ft 244 kts 261°
2026-05-06 22:47 53.75797 -2.19317 4994 ft 250 kts 232°
2026-05-06 22:47 53.74394 -2.21038 4992 ft 254 kts 200°
2026-05-06 22:48 53.72647 -2.21286 4987 ft 255 kts 169°
2026-05-06 22:48 53.70939 -2.20479 4994 ft 256 kts 160°
2026-05-06 22:48 53.69247 -2.19457 4993 ft 261 kts 159°
2026-05-06 22:48 53.67534 -2.18417 4986 ft 260 kts 160°
2026-05-06 22:49 53.65852 -2.17401 4975 ft 253 kts 156°
2026-05-06 22:49 53.64475 -2.15694 4988 ft 245 kts 123°
2026-05-06 22:49 53.63825 -2.13083 5002 ft 244 kts 94°
2026-05-06 22:49 53.63991 -2.10268 5006 ft 242 kts 66°
2026-05-06 22:50 53.64913 -2.07971 4999 ft 236 kts 38°
2026-05-06 22:50 53.66344 -2.06732 4983 ft 231 kts 12°
2026-05-06 22:50 53.67929 -2.06645 4988 ft 229 kts 349°
2026-05-06 22:50 53.69463 -2.07385 4991 ft 232 kts 342°
2026-05-06 22:51 53.71007 -2.08301 4998 ft 238 kts 341°
2026-05-06 22:51 53.72571 -2.09235 4983 ft 237 kts 341°
2026-05-06 22:51 53.74113 -2.10145 4987 ft 233 kts 341°
2026-05-06 22:51 53.75515 -2.11468 4972 ft 232 kts 316°
2026-05-06 22:52 53.76392 -2.13761 4983 ft 237 kts 291°
2026-05-06 22:52 53.76590 -2.16530 4986 ft 243 kts 265°
2026-05-06 22:52 53.76008 -2.19220 4987 ft 249 kts 237°
2026-05-06 22:52 53.74699 -2.21155 4992 ft 254 kts 206°
2026-05-06 22:53 53.72996 -2.21726 4975 ft 256 kts 175°
2026-05-06 22:53 53.71268 -2.21078 4998 ft 256 kts 161°
2026-05-06 22:53 53.69551 -2.20062 4994 ft 258 kts 159°
2026-05-06 22:53 53.67881 -2.19045 4990 ft 259 kts 159°
2026-05-06 22:54 53.66178 -2.18025 4997 ft 260 kts 159°
2026-05-06 22:54 53.64641 -2.16483 4981 ft 257 kts 130°
2026-05-06 22:54 53.63812 -2.13929 4991 ft 246 kts 99°
2026-05-06 22:54 53.63828 -2.11109 4995 ft 240 kts 71°
2026-05-06 22:55 53.64596 -2.08656 4991 ft 238 kts 45°
2026-05-06 22:55 53.65929 -2.07068 4991 ft 236 kts 19°
2026-05-06 22:55 53.67540 -2.06614 4994 ft 237 kts 356°
2026-05-06 22:55 53.69153 -2.07205 4996 ft 237 kts 343°
2026-05-06 22:56 53.70704 -2.08108 4990 ft 235 kts 341°
2026-05-06 22:56 53.72245 -2.09033 4973 ft 234 kts 341°
2026-05-06 22:56 53.73745 -2.09923 4976 ft 230 kts 342°
2026-05-06 22:56 53.75294 -2.10435 4967 ft 228 kts
2026-05-06 22:57 53.76805 -2.09624 4996 ft 230 kts 20°
2026-05-06 22:57 53.78307 -2.08636 4992 ft 233 kts 20°
2026-05-06 22:57 53.79828 -2.07646 4992 ft 235 kts 20°
2026-05-06 22:57 53.81355 -2.06652 4991 ft 235 kts 20°
2026-05-06 22:58 53.82369 -2.05993 4990 ft 236 kts 20°
2026-05-06 22:58 53.83895 -2.05001 5003 ft 234 kts 20°
2026-05-06 22:58 53.85410 -2.04018 4984 ft 230 kts 20°
2026-05-06 22:58 53.86910 -2.03048 4996 ft 232 kts 20°
2026-05-06 22:59 53.88425 -2.02069 4992 ft 233 kts 20°
2026-05-06 22:59 53.89948 -2.01087 4993 ft 234 kts 20°
2026-05-06 22:59 53.91453 -2.00116 4810 ft 230 kts 20°
2026-05-06 22:59 53.92930 -1.99169 4542 ft 222 kts 20°
2026-05-06 23:00 53.94315 -1.98119 4255 ft 216 kts 35°
2026-05-06 23:00 53.95439 -1.96497 4007 ft 208 kts 40°
2026-05-06 23:00 53.96522 -1.94899 3752 ft 205 kts 40°
2026-05-06 23:00 53.97598 -1.93335 3482 ft 202 kts 40°
2026-05-06 23:01 53.98661 -1.91806 3219 ft 198 kts 40°
2026-05-06 23:01 53.99685 -1.90339 3070 ft 185 kts 43°
2026-05-06 23:01 54.00281 -1.88585 2985 ft 170 kts 77°
2026-05-06 23:01 54.00019 -1.86644 3005 ft 181 kts 126°
2026-05-06 23:02 53.99022 -1.85226 3035 ft 190 kts 134°
2026-05-06 23:02 53.98059 -1.83732 3004 ft 184 kts 131°
2026-05-06 23:02 53.97145 -1.82301 2977 ft 172 kts 132°
2026-05-06 23:02 53.96275 -1.80962 3015 ft 170 kts 131°
2026-05-06 23:03 53.95390 -1.79597 3009 ft 172 kts 132°
2026-05-06 23:03 53.94502 -1.78233 3002 ft 172 kts 132°
2026-05-06 23:03 53.93605 -1.76853 2791 ft 175 kts 132°
2026-05-06 23:03 53.92739 -1.75525 2529 ft 161 kts 131°
2026-05-06 23:04 53.91945 -1.74304 2305 ft 151 kts 131°
2026-05-06 23:04 53.91173 -1.73114 2040 ft 148 kts 131°
2026-05-06 23:04 53.90414 -1.71944 1804 ft 147 kts 131°
2026-05-06 23:04 53.89654 -1.70774 1538 ft 147 kts 133°
2026-05-06 23:05 53.88912 -1.69633 1270 ft 143 kts 134°
2026-05-06 23:05 53.88185 -1.68509 1064 ft 142 kts 136°
2026-05-06 23:05 53.87452 -1.67379 828 ft 142 kts 137°
2026-05-06 23:05 53.86734 -1.66278 668 ft 133 kts 137°
2026-05-06 23:06 53.86239 -1.65515 679 ft 31 kts 137°
2026-05-06 23:06 53.86177 -1.65443 679 ft 1 kts 122°
2026-05-06 23:06 53.86182 -1.65431 679 ft 2 kts 38°
2026-05-06 23:06 53.86223 -1.65459 679 ft 10 kts 334°
2026-05-06 23:07 53.86294 -1.65459 678 ft 10 kts
2026-05-06 23:07 53.86367 -1.65451 677 ft 11 kts
2026-05-06 23:07 53.86457 -1.65443 670 ft 15 kts
2026-05-06 23:07 53.86572 -1.65434 665 ft 17 kts
2026-05-06 23:08 53.86700 -1.65419 660 ft 13 kts
2026-05-06 23:08 53.86748 -1.65415 660 ft 6 kts
2026-05-06 23:08 53.86787 -1.65414 661 ft 6 kts 358°
2026-05-06 23:08 53.86812 -1.65455 662 ft 5 kts 287°
2026-05-06 23:09 53.86814 -1.65506 663 ft 0 kts 272°
2026-05-06 23:09 53.86815 -1.65522 663 ft 2 kts 272°
2026-05-06 23:10 53.86815 -1.65549 663 ft 2 kts 271°
2026-05-06 23:10 53.86816 -1.65587 663 ft 4 kts 272°
2026-05-06 23:10 53.86817 -1.65644 663 ft 5 kts 270°
2026-05-06 23:10 53.86837 -1.65686 663 ft 6 kts 343°
2026-05-06 23:11 53.86865 -1.65690 664 ft 4 kts
2026-05-06 23:11 53.86872 -1.65690 664 ft 1 kts
2026-05-06 23:11 53.86876 -1.65690 664 ft 1 kts
2026-05-06 23:11 53.86878 -1.65690 664 ft 0 kts